Terug naar catalogus

COSMOS 2206

GLONASS

ActiefNavigatieMEO
NORAD 22056·PAYLOAD·🇷🇺 Russia

Gelanceerd Jul 30, 1992 vanaf Baikonur Cosmodrome

Loading…

Volgende Passages (komende 24 uur)

TLE

VersSource: Space-Track

Epoch: Sep 14, 2026, 05:19 UTC

1 22056U 92047A   26257.22159443 -.00000035  00000-0  00000-0 0  9998
2 22056  64.0796 298.9328 0011366 240.7144 126.0559  2.13107054265520

Volg COSMOS 2206 in realtime met AllMySat

Download on the App Store